Time,TemperatureF,DewpointF,PressureIn,WindDirection,WindDirectionDegrees,WindSpeedMPH,WindSpeedGustMPH,Humidity,HourlyPrecipIn,Conditions,Clouds,dailyrainin,SoftwareType,DateUTC
2013-10-04 00:35:00,68.7,65.0,29.95,SSE,149,1.0,4.0,89,0.00,,,0.00,weatherlink.com 1.10,2013-10-04 04:35:00,
2013-10-04 00:50:00,68.8,66.0,29.95,SSE,155,1.0,2.0,89,0.00,,,0.00,weatherlink.com 1.10,2013-10-04 04:50:00,
2013-10-04 01:05:00,68.9,66.0,29.95,South,176,2.0,6.0,90,0.00,,,0.00,weatherlink.com 1.10,2013-10-04 05:05:00,
2013-10-04 01:20:00,68.8,66.0,29.95,SSE,162,0.0,5.0,90,0.00,,,0.00,weatherlink.com 1.10,2013-10-04 05:20:00,
2013-10-04 01:35:00,68.7,66.0,29.95,SE,145,0.0,6.0,90,0.00,,,0.00,weatherlink.com 1.10,2013-10-04 05:35:00,
2013-10-04 01:50:00,68.5,66.0,29.95,SSE,152,1.0,5.0,91,0.00,,,0.00,weatherlink.com 1.10,2013-10-04 05:50:00,
2013-10-04 02:05:00,68.2,66.0,29.95,SE,142,1.0,5.0,91,0.00,,,0.00,weatherlink.com 1.10,2013-10-04 06:05:00,
2013-10-04 02:20:00,67.8,66.0,29.96,SSE,155,1.0,3.0,92,0.00,,,0.00,weatherlink.com 1.10,2013-10-04 06:20:00,
2013-10-04 02:35:00,67.7,66.0,29.95,SSE,162,2.0,3.0,93,0.00,,,0.00,weatherlink.com 1.10,2013-10-04 06:35:00,
2013-10-04 02:50:00,67.9,66.0,29.95,ESE,118,1.0,5.0,93,0.00,,,0.00,weatherlink.com 1.10,2013-10-04 06:50:00,
2013-10-04 03:05:00,68.2,66.0,29.95,ESE,116,1.0,3.0,92,0.00,,,0.00,weatherlink.com 1.10,2013-10-04 07:05:00,
2013-10-04 03:20:00,68.5,66.0,29.96,SW,221,2.0,3.0,92,0.00,,,0.00,weatherlink.com 1.10,2013-10-04 07:20:00,
2013-10-04 03:35:00,68.5,66.0,29.96,SSE,160,0.0,3.0,92,0.00,,,0.00,weatherlink.com 1.10,2013-10-04 07:35:00,
2013-10-04 03:50:00,68.5,66.0,29.96,South,191,0.0,4.0,92,0.00,,,0.00,weatherlink.com 1.10,2013-10-04 07:50:00,
2013-10-04 04:05:00,68.5,66.0,29.96,WSW,250,0.0,3.0,92,0.00,,,0.00,weatherlink.com 1.10,2013-10-04 08:05:00,
2013-10-04 04:20:00,68.5,66.0,29.96,South,183,0.0,4.0,92,0.00,,,0.00,weatherlink.com 1.10,2013-10-04 08:20:00,
2013-10-04 04:35:00,68.5,66.0,29.96,South,179,2.0,2.0,92,0.00,,,0.00,weatherlink.com 1.10,2013-10-04 08:35:00,
2013-10-04 04:50:00,68.3,66.0,29.96,SE,146,0.0,3.0,92,0.00,,,0.00,weatherlink.com 1.10,2013-10-04 08:50:00,
2013-10-04 05:05:00,67.7,66.0,29.96,South,176,1.0,2.0,93,0.00,,,0.00,weatherlink.com 1.10,2013-10-04 09:05:00,
2013-10-04 05:20:00,67.2,66.0,29.96,SSE,160,0.0,4.0,94,0.00,,,0.00,weatherlink.com 1.10,2013-10-04 09:20:00,
2013-10-04 05:35:00,67.2,66.0,29.97,SSE,163,0.0,3.0,95,0.00,,,0.00,weatherlink.com 1.10,2013-10-04 09:35:00,
2013-10-04 05:51:00,67.1,66.0,29.97,SSE,159,0.0,2.0,95,0.00,,,0.00,weatherlink.com 1.10,2013-10-04 09:51:00,
2013-10-04 06:06:00,66.7,65.0,29.97,SSE,162,0.0,1.0,95,0.00,,,0.00,weatherlink.com 1.10,2013-10-04 10:06:00,
2013-10-04 06:21:00,66.4,65.0,29.97,SSE,162,0.0,1.0,95,0.00,,,0.00,weatherlink.com 1.10,2013-10-04 10:21:00,
2013-10-04 06:36:00,66.0,65.0,29.97,SSE,162,0.0,1.0,95,0.00,,,0.00,weatherlink.com 1.10,2013-10-04 10:36:00,
2013-10-04 06:51:00,65.9,65.0,29.98,SSE,162,0.0,0.0,96,0.00,,,0.00,weatherlink.com 1.10,2013-10-04 10:51:00,
2013-10-04 07:06:00,66.1,65.0,29.98,SSW,205,0.0,1.0,96,0.00,,,0.00,weatherlink.com 1.10,2013-10-04 11:06:00,
2013-10-04 07:21:00,66.2,65.0,29.98,SSW,205,0.0,1.0,96,0.00,,,0.00,weatherlink.com 1.10,2013-10-04 11:21:00,
2013-10-04 07:36:00,66.5,66.0,29.99,SSE,158,1.0,3.0,97,0.00,,,0.00,weatherlink.com 1.10,2013-10-04 11:36:00,
2013-10-04 07:51:00,66.7,66.0,29.99,SSE,159,0.0,2.0,96,0.00,,,0.00,weatherlink.com 1.10,2013-10-04 11:51:00,
2013-10-04 08:06:00,66.9,66.0,29.99,SSE,152,0.0,4.0,96,0.00,,,0.00,weatherlink.com 1.10,2013-10-04 12:06:00,
2013-10-04 08:21:00,67.2,66.0,29.99,SE,142,0.0,0.0,96,0.00,,,0.00,weatherlink.com 1.10,2013-10-04 12:21:00,
2013-10-04 08:36:00,67.4,66.0,29.99,SSE,163,0.0,0.0,96,0.00,,,0.00,weatherlink.com 1.10,2013-10-04 12:36:00,
2013-10-04 08:51:00,67.7,66.0,29.99,South,172,3.0,3.0,95,0.00,,,0.00,weatherlink.com 1.10,2013-10-04 12:51:00,
2013-10-04 09:06:00,68.2,67.0,29.99,SE,137,3.0,5.0,95,0.00,,,0.00,weatherlink.com 1.10,2013-10-04 13:06:00,
2013-10-04 09:21:00,69.1,67.0,29.99,SSE,148,0.0,4.0,94,0.00,,,0.00,weatherlink.com 1.10,2013-10-04 13:21:00,
2013-10-04 09:36:00,70.8,68.0,29.99,SSE,161,0.0,3.0,91,0.00,,,0.00,weatherlink.com 1.10,2013-10-04 13:36:00,
2013-10-04 09:51:00,72.5,69.0,30.00,ESE,118,3.0,8.0,87,0.00,,,0.00,weatherlink.com 1.10,2013-10-04 13:51:00,
2013-10-04 10:06:00,76.1,70.0,30.00,ESE,119,1.0,7.0,81,0.00,,,0.00,weatherlink.com 1.10,2013-10-04 14:06:00,
2013-10-04 10:21:00,75.8,69.0,30.00,SW,225,2.0,5.0,80,0.00,,,0.00,weatherlink.com 1.10,2013-10-04 14:21:00,
2013-10-04 10:36:00,75.9,69.0,30.00,SE,140,1.0,5.0,80,0.00,,,0.00,weatherlink.com 1.10,2013-10-04 14:36:00,
2013-10-04 10:51:00,76.4,70.0,30.00,SE,135,1.0,5.0,81,0.00,,,0.00,weatherlink.com 1.10,2013-10-04 14:51:00,
2013-10-04 11:06:00,78.6,71.0,29.99,SE,128,0.0,6.0,77,0.00,,,0.00,weatherlink.com 1.10,2013-10-04 15:06:00,
2013-10-04 11:21:00,79.6,71.0,29.99,SW,228,3.0,6.0,75,0.00,,,0.00,weatherlink.com 1.10,2013-10-04 15:21:00,
2013-10-04 11:36:00,80.5,72.0,30.00,WNW,303,1.0,8.0,74,0.00,,,0.00,weatherlink.com 1.10,2013-10-04 15:36:00,
2013-10-04 11:51:00,79.1,71.0,29.99,SW,221,3.0,6.0,76,0.00,,,0.00,weatherlink.com 1.10,2013-10-04 15:51:00,
2013-10-04 12:06:00,80.2,71.0,29.99,ESE,117,0.0,-999.0,74,-99.99,,,0.00,weatherlink.com 1.10,2013-10-04 16:06:00,
2013-10-04 12:21:00,79.7,70.0,30.00,WSW,255,0.0,8.0,73,0.00,,,0.00,weatherlink.com 1.10,2013-10-04 16:21:00,
2013-10-04 12:36:00,78.4,70.0,29.99,ESE,119,2.0,6.0,75,0.00,,,0.00,weatherlink.com 1.10,2013-10-04 16:36:00,
2013-10-04 12:51:00,78.3,70.0,29.99,South,185,4.0,7.0,76,0.00,,,0.00,weatherlink.com 1.10,2013-10-04 16:51:00,
2013-10-04 13:06:00,78.5,71.0,29.99,SSE,165,1.0,6.0,77,0.00,,,0.00,weatherlink.com 1.10,2013-10-04 17:06:00,
2013-10-04 13:21:00,78.6,71.0,29.99,SE,146,2.0,7.0,77,0.00,,,0.00,weatherlink.com 1.10,2013-10-04 17:21:00,
2013-10-04 13:36:00,78.8,71.0,29.98,South,169,2.0,7.0,78,0.00,,,0.00,weatherlink.com 1.10,2013-10-04 17:36:00,
2013-10-04 14:06:00,80.8,71.0,29.97,SW,233,2.0,6.0,71,0.00,,,0.00,weatherlink.com 1.10,2013-10-04 18:06:00,
2013-10-04 14:21:00,81.0,71.0,29.97,East,95,2.0,7.0,71,0.00,,,0.00,weatherlink.com 1.10,2013-10-04 18:21:00,
2013-10-04 14:36:00,80.9,71.0,29.96,SSW,200,6.0,9.0,72,0.00,,,0.00,weatherlink.com 1.10,2013-10-04 18:36:00,
2013-10-04 14:51:00,80.3,70.0,29.96,SSE,149,1.0,7.0,71,0.00,,,0.00,weatherlink.com 1.10,2013-10-04 18:51:00,
2013-10-04 15:06:00,80.9,69.0,29.96,ESE,111,4.0,7.0,68,0.00,,,0.00,weatherlink.com 1.10,2013-10-04 19:06:00,
2013-10-04 15:21:00,82.4,69.0,29.95,South,169,0.0,5.0,65,0.00,,,0.00,weatherlink.com 1.10,2013-10-04 19:21:00,
2013-10-04 15:37:00,82.3,70.0,29.95,NE,56,3.0,6.0,67,0.00,,,0.00,weatherlink.com 1.10,2013-10-04 19:37:00,
2013-10-04 15:52:00,82.2,70.0,29.95,ESE,105,2.0,6.0,67,0.00,,,0.00,weatherlink.com 1.10,2013-10-04 19:52:00,
2013-10-04 16:07:00,82.7,70.0,29.95,SE,138,3.0,8.0,65,0.00,,,0.00,weatherlink.com 1.10,2013-10-04 20:07:00,
2013-10-04 16:22:00,82.8,69.0,29.95,SSE,149,2.0,5.0,64,0.00,,,0.00,weatherlink.com 1.10,2013-10-04 20:22:00,
2013-10-04 16:37:00,83.2,69.0,29.95,SSW,197,1.0,7.0,63,0.00,,,0.00,weatherlink.com 1.10,2013-10-04 20:37:00,
2013-10-04 16:52:00,83.8,70.0,29.95,SW,214,3.0,4.0,63,0.00,,,0.00,weatherlink.com 1.10,2013-10-04 20:52:00,
2013-10-04 17:07:00,81.2,68.0,29.95,SSE,156,2.0,6.0,65,0.00,,,0.00,weatherlink.com 1.10,2013-10-04 21:07:00,
2013-10-04 17:22:00,80.6,69.0,29.95,SSE,167,1.0,5.0,67,0.00,,,0.00,weatherlink.com 1.10,2013-10-04 21:22:00,
2013-10-04 17:37:00,81.6,69.0,29.95,SW,236,2.0,5.0,65,0.00,,,0.00,weatherlink.com 1.10,2013-10-04 21:37:00,
2013-10-04 17:52:00,82.5,69.0,29.94,SSW,208,1.0,3.0,64,0.00,,,0.00,weatherlink.com 1.10,2013-10-04 21:52:00,
2013-10-04 18:07:00,82.2,69.0,29.94,SSE,150,1.0,2.0,65,0.00,,,0.00,weatherlink.com 1.10,2013-10-04 22:07:00,
2013-10-04 18:22:00,82.6,70.0,29.94,South,187,0.0,2.0,65,0.00,,,0.00,weatherlink.com 1.10,2013-10-04 22:22:00,
2013-10-04 18:37:00,80.8,69.0,29.94,SSE,148,0.0,3.0,67,0.00,,,0.00,weatherlink.com 1.10,2013-10-04 22:37:00,
2013-10-04 18:52:00,79.4,69.0,29.94,SSW,207,0.0,1.0,70,0.00,,,0.00,weatherlink.com 1.10,2013-10-04 22:52:00,
2013-10-04 19:07:00,77.7,69.0,29.94,SSW,207,0.0,1.0,74,0.00,,,0.00,weatherlink.com 1.10,2013-10-04 23:07:00,
2013-10-04 19:22:00,76.2,69.0,29.94,South,186,0.0,2.0,77,0.00,,,0.00,weatherlink.com 1.10,2013-10-04 23:22:00,
2013-10-04 19:37:00,75.3,68.0,29.95,South,173,0.0,1.0,79,0.00,,,0.00,weatherlink.com 1.10,2013-10-04 23:37:00,
2013-10-04 19:52:00,74.2,68.0,29.95,South,174,0.0,0.0,81,0.00,,,0.00,weatherlink.com 1.10,2013-10-04 23:52:00,
2013-10-04 20:07:00,73.3,68.0,29.95,South,173,0.0,0.0,84,0.00,,,0.00,weatherlink.com 1.10,2013-10-05 00:07:00,
2013-10-04 20:22:00,72.8,68.0,29.95,South,172,0.0,1.0,85,0.00,,,0.00,weatherlink.com 1.10,2013-10-05 00:22:00,
2013-10-04 20:37:00,72.6,68.0,29.96,South,172,0.0,0.0,85,0.00,,,0.00,weatherlink.com 1.10,2013-10-05 00:37:00,
2013-10-04 20:52:00,71.8,68.0,29.96,South,172,0.0,0.0,87,0.00,,,0.00,weatherlink.com 1.10,2013-10-05 00:52:00,
2013-10-04 21:07:00,71.0,68.0,29.97,South,172,0.0,0.0,89,0.00,,,0.00,weatherlink.com 1.10,2013-10-05 01:07:00,
2013-10-04 21:22:00,70.3,67.0,29.97,South,170,0.0,0.0,90,0.00,,,0.00,weatherlink.com 1.10,2013-10-05 01:22:00,
2013-10-04 21:37:00,69.6,67.0,29.97,South,172,0.0,0.0,91,0.00,,,0.00,weatherlink.com 1.10,2013-10-05 01:37:00,
2013-10-04 21:52:00,69.1,67.0,29.97,South,172,0.0,0.0,92,0.00,,,0.00,weatherlink.com 1.10,2013-10-05 01:52:00,
2013-10-04 22:07:00,68.9,67.0,29.97,South,170,0.0,0.0,93,0.00,,,0.00,weatherlink.com 1.10,2013-10-05 02:07:00,
2013-10-04 22:22:00,68.9,67.0,29.97,South,170,0.0,1.0,93,0.00,,,0.00,weatherlink.com 1.10,2013-10-05 02:22:00,
2013-10-04 22:37:00,69.2,67.0,29.97,SE,138,0.0,1.0,93,0.00,,,0.00,weatherlink.com 1.10,2013-10-05 02:37:00,
2013-10-04 22:52:00,69.6,68.0,29.98,SSE,162,0.0,1.0,93,0.00,,,0.00,weatherlink.com 1.10,2013-10-05 02:52:00,
2013-10-04 23:07:00,69.7,67.0,29.98,SSW,200,0.0,0.0,92,0.00,,,0.00,weatherlink.com 1.10,2013-10-05 03:07:00,
2013-10-04 23:22:00,69.7,67.0,29.98,SSW,200,0.0,0.0,92,0.00,,,0.00,weatherlink.com 1.10,2013-10-05 03:22:00,
2013-10-04 23:37:00,69.6,67.0,29.98,SSW,200,0.0,0.0,92,0.00,,,0.00,weatherlink.com 1.10,2013-10-05 03:37:00,
2013-10-04 23:52:00,69.5,68.0,29.98,South,169,0.0,0.0,93,0.00,,,0.00,weatherlink.com 1.10,2013-10-05 03:52:00,